Tracking 30995 objects as of 7-Jul-2025
HD Live streaming from Space Station
objects crossing your sky now

CZ-4 DEB

Track CZ-4 DEB now!
10-day predictions


NORAD ID: 35378
Int'l Code: 2006-046L
Perigee: 512.0 km
Apogee: 624.4 km
Inclination: 97.8 °
Period: 95.9 minutes
Semi major axis: 6939 km
RCS: 0.0012 m2 (small)
Launch date: October 23, 2006
Source: People's Republic of China (PRC)
Launch site: Taiyaun Space Center, China (TSC)

Note: This is SATELLITE DEBRIS
Your satellite tracking list
Your tracking list is empty




NASA's NSSDC Master Catalog

Two Line Element Set (TLE):
1 35378U 06046L   25187.05919215  .00012425  00000-0  88965-3 0  9990
2 35378  97.8414 271.4661 0081007 348.2711  11.6624 15.01897051988327
Source of the keplerian elements: AFSPC